Flag for U.S.A. Weather past 2 weeks in Corvallis, Oregon, U.S.A.

Now
39 °F

Partly cloudy.


Feels Like: 39 °F
Forecast: 42 / 47 °F
Wind: No wind

Location: Corvallis Municipal

Current Time: Dec 25, 2014 at 4:10:34 AM

Latest Report: Dec 25, 2014 at 3:35 AM


Visibility: 10 mi

Pressure: 30.19 "Hg

Humidity: 87%

Dew point: 36 °F

Location of CorvallisLocation

Historic Weather in Corvallis — Graph

°F

Corvallis temperature yesterday

Maximum temperature yesterday: 55 °F (at 3:55 AM)
Minimum temperature yesterday: 39 °F (at 9:55 PM)
Average temperature yesterday: 45 °F

Past Weeks' High & Low Weather Summary

 TemperatureHumidityPressure
High59 °F (Dec 10, 2:35 PM)100% (Dec 12, 11:15 AM)30.40 "Hg (Dec 12, 11:15 AM)
Low36 °F (Dec 13, 6:35 AM)36% (Dec 11, 2:35 PM)29.10 "Hg (Dec 11, 5:55 AM)
Average49 °F85%29.93 "Hg
* Reported Dec 10 2:15 AM — Dec 25 2:55 AM, Corvallis, Weather by CustomWeather, © 2014

Note: Actual official high and low records may vary slightly from our data, if they occured in-between our weather recording intervals... More about our weather records

Advertising

Corvallis weather history for previous 24 hours

 ConditionsComfort  
Time TempWeatherWind HumidityBarometerVisibility
2:55 AM
Dec 25
39 °FMostly cloudy.No wind87%30.18 "Hg10 mi
2:35 AM37 °FPassing clouds.3 mph93%30.18 "Hg10 mi
2:15 AM37 °FPassing clouds.3 mph93%30.18 "Hg10 mi
1:55 AM37 °FPassing clouds.No wind93%30.16 "Hg10 mi
1:35 AM37 °FPassing clouds.6 mph87%30.16 "Hg10 mi
1:15 AM39 °FPassing clouds.3 mph87%30.15 "Hg10 mi
12:55 AM39 °FPartly cloudy.5 mph87%30.15 "Hg10 mi
12:35 AM37 °FPassing clouds.3 mph87%30.15 "Hg10 mi
12:15 AM39 °FPassing clouds.3 mph87%30.15 "Hg10 mi
11:55 PM
Dec 24
39 °FPassing clouds.6 mph87%30.15 "Hg10 mi
11:35 PM39 °FPartly cloudy.No wind93%30.16 "Hg10 mi
11:15 PM39 °FPassing clouds.No wind93%30.16 "Hg10 mi
10:55 PM39 °FPassing clouds.7 mph87%30.15 "Hg10 mi
10:35 PM39 °FPartly cloudy.3 mph87%30.15 "Hg10 mi
10:15 PM39 °FClear.5 mph87%30.14 "Hg10 mi
9:55 PM39 °FClear.5 mph87%30.14 "Hg10 mi
9:35 PM41 °FPassing clouds.5 mph87%30.14 "Hg10 mi
9:15 PM43 °FPartly cloudy.3 mph81%30.12 "Hg10 mi
8:55 PM43 °FMostly cloudy.7 mph81%30.12 "Hg10 mi
8:35 PM43 °FOvercast.6 mph81%30.12 "Hg10 mi
8:15 PM43 °FPassing clouds.7 mph81%30.11 "Hg10 mi
7:35 PM43 °FOvercast.3 mph87%30.11 "Hg10 mi
7:15 PM43 °FPartly cloudy.5 mph87%30.10 "Hg10 mi
6:55 PM43 °FOvercast.6 mph87%30.10 "Hg10 mi
6:35 PM43 °FPartly cloudy.No wind81%30.09 "Hg10 mi
6:15 PM43 °FPassing clouds.5 mph87%30.08 "Hg10 mi
5:55 PM43 °FPassing clouds.5 mph87%30.07 "Hg10 mi
5:35 PM45 °FPartly cloudy.5 mph87%30.08 "Hg10 mi
5:15 PM45 °FPassing clouds.7 mph81%30.07 "Hg10 mi
4:55 PM43 °FPartly cloudy.7 mph87%30.07 "Hg10 mi
4:35 PM45 °FPartly sunny.8 mph81%30.06 "Hg10 mi
3:55 PM45 °FCloudy.5 mph81%30.06 "Hg10 mi
3:35 PM45 °FMostly cloudy.6 mph81%30.05 "Hg10 mi
3:15 PM46 °FCloudy.8 mph76%30.05 "Hg10 mi
2:55 PM46 °FPartly sunny.6 mph76%30.04 "Hg10 mi
2:35 PM45 °FScattered clouds.3 mph81%30.03 "Hg10 mi
2:15 PM45 °FPartly sunny.7 mph76%30.02 "Hg10 mi
1:55 PM45 °FOvercast.10 mph81%30.02 "Hg10 mi
1:35 PM45 °FMostly cloudy.8 mph81%30.02 "Hg10 mi
1:15 PM45 °FPartly sunny.8 mph87%30.01 "Hg10 mi
12:55 PM45 °FOvercast.6 mph87%30.01 "Hg10 mi
12:35 PM45 °FMostly cloudy.5 mph81%30.01 "Hg10 mi
12:15 PM45 °FMostly cloudy.5 mph81%30.00 "Hg10 mi
11:55 AM45 °FOvercast.6 mph81%30.01 "Hg10 mi
11:35 AM43 °FMore clouds than sun.7 mph87%30.01 "Hg10 mi
11:15 AM43 °FCloudy.7 mph81%30.00 "Hg10 mi
10:55 AM43 °FBroken clouds.5 mph81%30.00 "Hg10 mi
10:35 AM41 °FBroken clouds.6 mph87%30.00 "Hg10 mi
9:55 AM41 °FMostly cloudy.5 mph87%29.99 "Hg10 mi
9:35 AM41 °FMore clouds than sun.7 mph87%29.98 "Hg10 mi
9:15 AM41 °FOvercast.7 mph87%29.97 "Hg10 mi
8:55 AM41 °FOvercast.8 mph81%29.96 "Hg10 mi
8:35 AM41 °FOvercast.9 mph81%29.94 "Hg10 mi
8:15 AM41 °FMore clouds than sun.8 mph87%29.93 "Hg10 mi
7:55 AM43 °FOvercast.9 mph76%29.93 "Hg10 mi
7:35 AM43 °FOvercast.10 mph81%29.93 "Hg10 mi
7:15 AM43 °FOvercast.9 mph81%29.92 "Hg10 mi
6:55 AM45 °FMostly cloudy.10 mph81%29.92 "Hg10 mi
6:35 AM45 °FMostly cloudy.12 mph81%29.92 "Hg8 mi
6:15 AM45 °FMostly cloudy.18 mph81%29.93 "Hg7 mi
5:55 AM46 °FMostly cloudy.12 mph87%29.91 "Hg10 mi
5:35 AM46 °FMostly cloudy.14 mph87%29.91 "Hg7 mi
5:15 AM46 °FOvercast.14 mph87%29.90 "Hg5 mi
4:55 AM48 °FMostly cloudy.12 mph87%29.90 "Hg5 mi
4:35 AM48 °FMostly cloudy.16 mph87%29.89 "Hg5 mi
4:15 AM52 °FOvercast.15 mph82%29.89 "Hg5 mi
Weather by CustomWeather, © 2014

See weather overviewHow to use our weather pages